Regional Weather Roundup
Issued by NWS

Home | Current Version | Previous Version | Text Only | Print | Product List | Glossary Off
Versions: 1 2 3 4 5 6 7 8 9 10 11 12 13 14 15 16 17 18 19 20 21 22 23 24 25 26 27 28 29 30 31 32 33 34 35 36 37 38 39 40 41 42 43 44 45 46 47 48 49 50

000
ASUS43 KTOP 200759
RWRKS

WEATHER ROUNDUP FOR KANSAS
NATIONAL WEATHER SERVICE GOODLAND KS
300 AM CDT WED SEP 20 2017

NOTE:  "FAIR" INDICATES FEW OR NO CLOUDS BELOW 12,000 FEET WITH NO
SIGNIFICANT WEATHER AND/OR OBSTRUCTIONS TO VISIBILITY.

KSZ001>006-013>018-027>032-041>047-200900-
NORTHWEST KANSAS

CITY           SKY/WX    TMP DP  RH WIND       PRES   REMARKS
GOODLAND       CLOUDY    47  34  60 NW8       29.87R
HAYS           CLEAR     66  41  40 NW16      29.73R
HILL CITY      CLEAR     58  40  51 NW7       29.79R
RUSSELL        CLEAR     67  42  40 NW12      29.70R
$$

KSZ061>065-074>080-084>089-200900-
SOUTHWEST KANSAS

CITY           SKY/WX    TMP DP  RH WIND       PRES   REMARKS
DODGE CITY     CLEAR     65  43  44 N14G24    29.76R
ELKHART          N/A     58  40  51 N12         N/A
GARDEN CITY    CLEAR     58  36  43 N14       29.79R
GREAT BEND     PTCLDY    76  61  59 SW9       29.70R
LIBERAL        CLOUDY    61  43  51 N16       29.77R
$$

KSZ066>073-081>083-090>101-200900-
SOUTHEAST KANSAS

CITY           SKY/WX    TMP DP  RH WIND       PRES   REMARKS
CHANUTE        CLEAR     76  70  82 S12       29.77S
COFFEYVILLE    CLEAR     78  71  79 S12       29.76F
HUTCHINSON     CLOUDY    79  65  62 S20G28    29.67F
MEDICINE LODGE   N/A     76  60  57 S10       29.68S
NEWTON         CLOUDY    77  68  73 S23G30    29.70S
WICHITA INTL   CLOUDY    77  70  79 S16       29.71S
WICHITA JABRA  CLOUDY    77  70  79 S15       29.71S
WINFIELD       CLOUDY    77  70  79 S15       29.74S
$$

KSZ007>012-019>026-033>040-048>060-102>105-200900-
NORTHEAST KANSAS

CITY           SKY/WX    TMP DP  RH WIND       PRES   REMARKS
CONCORDIA      PTCLDY    79  65  62 SW10      29.66R
EMPORIA        CLOUDY    75  69  81 S18G24    29.71S
LAWRENCE       CLEAR     77  70  79 SE14      29.70F
MANHATTAN      CLOUDY    80  71  74 S15G23    29.65S
OLATHE IND     CLEAR     75  69  81 S15       29.73F
OLATHE EXE     CLEAR     74  70  87 S12       29.74F
SALINA         CLOUDY    82  67  60 S21G33    29.63S
TOPEKA BILLARD PTCLDY    78  71  79 S17G24    29.68F
TOPEKA FORBES  CLOUDY    79  70  74 S18G26    29.69F
$$



USA.gov is the U.S. government's official web portal to all federal, state and local government web resources and services.